Lake Clear, NY

8:45 PM EST on February 09, 2016 (GMT -0500)
Adirondack Regional

Weather History for KSLK - November, 2012

Change the Weather History Date:

Thursday, November 8, 2012

  Actual Average Record
Temperature  
Mean Temperature 25 °F 36 °F  
Max Temperature 31 °F 46 °F 66 °F (1975)
Min Temperature 18 °F 25 °F 7 °F (2003)
Degree Days  
Heating Degree Days 40 30  
Month to date heating degree days 292 228  
Since 1 July heating degree days 1385 1520  
Cooling Degree Days 0 0  
Month to date cooling degree days 0  
Year to date cooling degree days 114  
Moisture  
Dew Point 21 °F    
Average Humidity 80    
Maximum Humidity 91    
Minimum Humidity 68    
Precipitation  
Precipitation 0.00 in 0.13 in 2.48 in (1963)
Month to date precipitation 0.10 1.00  
Year to date precipitation 30.36 32.88  
Sea Level Pressure  
Sea Level Pressure 30.00 in    
Wind  
Wind Speed 5 mph (North)    
Max Wind Speed 18 mph    
Max Gust Speed 24 mph    
Visibility 10 miles    
Events      
T = Trace of Precipitation, MM = Missing Value Source: NWS Daily Summary

Daily Weather History Graph

Daily Weather History Graph

Search for Another Location

Airport or City:

Trip Planner

Search our weather history database for the weather conditions in past years. The results will help you decide how hot, cold, wet, or windy it might be!

Date:

Astronomy

Nov. 08, 2012 Rise Set
Actual Time 6:44 AM EST 4:36 PM EST
Civil Twilight 6:13 AM EST 5:07 PM EST
Nautical Twilight 5:38 AM EST 5:42 PM EST
Astronomical Twilight 5:04 AM EST 6:16 PM EST
Moon 12:23 AM EST (11/8) 1:28 PM EST (11/8)
Length of Visible Light 10h 54m
Length of Day
9h 52m
Waning Crescent, 33% of the Moon is Illuminated
Nov 8
Waning Crescent
Nov 13
New
Nov 20
First Quarter
Nov 28
Full
Dec 6
Last Quarter

Hourly Weather History & Observations

Time (EST) Temp. Windchill Dew Point Humidity Pressure Visibility Wind Dir Wind Speed Gust Speed Precip Events Conditions
12:51 AM 24.1 °F 17.0 °F 17.1 °F 75% 30.00 in 10.0 mi North 5.8 mph - N/A   Clear
1:51 AM 24.1 °F 19.7 °F 16.0 °F 71% 30.01 in 10.0 mi North 3.5 mph - N/A   Clear
2:51 AM 21.9 °F 15.7 °F 16.0 °F 78% 30.00 in 10.0 mi North 4.6 mph - N/A   Clear
3:51 AM 19.9 °F - 16.0 °F 85% 30.00 in 10.0 mi Calm Calm - N/A   Clear
4:51 AM 19.9 °F 13.4 °F 17.1 °F 89% 30.01 in 10.0 mi ENE 4.6 mph - N/A   Clear
5:51 AM 21.0 °F 16.2 °F 18.0 °F 88% 30.01 in 10.0 mi Variable 3.5 mph - N/A   Clear
6:51 AM 21.9 °F 14.5 °F 18.0 °F 85% 30.01 in 10.0 mi ENE 5.8 mph - N/A   Partly Cloudy
7:51 AM 23.0 °F - 19.9 °F 88% 30.02 in 10.0 mi Calm Calm - N/A   Overcast
8:51 AM 25.0 °F 14.8 °F 19.9 °F 81% 30.02 in 10.0 mi NNE 10.4 mph 16.1 mph N/A   Overcast
9:51 AM 25.0 °F 14.2 °F 21.0 °F 85% 30.03 in 10.0 mi NNE 11.5 mph 17.3 mph N/A   Overcast
10:51 AM 28.0 °F 18.6 °F 21.9 °F 78% 30.02 in 10.0 mi North 10.4 mph 17.3 mph N/A   Overcast
11:51 AM 28.9 °F 19.2 °F 23.0 °F 78% 30.00 in 10.0 mi NNE 11.5 mph 17.3 mph N/A   Overcast
12:51 PM 30.0 °F 21.7 °F 24.1 °F 79% 29.99 in 10.0 mi NNE 9.2 mph - N/A   Overcast
1:51 PM 30.0 °F 24.1 °F 24.1 °F 79% 29.99 in 10.0 mi North 5.8 mph - N/A   Overcast
2:51 PM 30.0 °F 24.1 °F 24.1 °F 79% 29.99 in 10.0 mi Variable 5.8 mph - N/A   Overcast
3:51 PM 30.0 °F 26.5 °F 24.1 °F 79% 29.99 in 10.0 mi North 3.5 mph - N/A   Overcast
4:51 PM 30.0 °F 25.2 °F 24.1 °F 79% 30.01 in 10.0 mi North 4.6 mph - N/A   Overcast
5:51 PM 30.9 °F 26.2 °F 24.1 °F 76% 30.02 in 10.0 mi NNW 4.6 mph - N/A   Overcast
7:05 PM 30.2 °F 26.7 °F 24.8 °F 80% 29.96 in 10.0 mi Variable 3.5 mph - N/A   Overcast
7:39 PM 30.2 °F 25.4 °F 24.8 °F 80% 29.96 in 10.0 mi NNW 4.6 mph - N/A   Overcast
7:51 PM 30.9 °F 27.5 °F 24.1 °F 76% 30.03 in 10.0 mi Variable 3.5 mph - N/A   Overcast
8:51 PM 30.0 °F - 21.9 °F 72% 30.02 in 10.0 mi Calm Calm - N/A   Overcast
9:51 PM 27.0 °F - 21.0 °F 78% 30.01 in 10.0 mi Calm Calm - N/A   Scattered Clouds
10:51 PM 24.1 °F - 19.9 °F 84% 30.00 in 10.0 mi Calm Calm - N/A   Clear
11:51 PM 19.0 °F - 18.0 °F 96% 30.01 in 10.0 mi Calm Calm - N/A   Clear